Location: Benalto
(52.3088°N, 114.2787°W)
Time: 12:16:25
(UTC+00:00)

N. Korean satellite - Pass Details

Date: 06 December 2021
Orbit: 447 x 490 km, 97.3° (Epoch: 27 January)

Event Time Altitude Azimuth Distance (km) Brightness Sun altitude
Rises 00:22:12 0° 184° (S) 2,521 10.6 -8.2°
Reaches altitude 10° 00:24:22 10° 193° (SSW) 1,639 9.8 -8.5°
Maximum altitude 00:27:39 37° 262° (W) 742 8.2 -9.0°
Drops below altitude 10° 00:30:56 10° 332° (NNW) 1,627 9.3 -9.4°
Sets 00:33:05 0° 341° (NNW) 2,500 10.1 -9.7°
